Volver al catálogo

STARLINK-11354

ActivoComunicacionesVLEO
NORAD 61532·PAYLOAD·🇺🇸 United States

Lanzado Oct 15, 2024 desde Vandenberg Space Force Base

Loading…

Próximos Pases (próximas 24 horas)

TLE

ActualizadoSource: CelesTrak SupGP

Época: Sep 15, 2026, 02:05 UTC

1 61532C 24184A   26258.08729167 -.00083556  00000+0 -68813-3 0  2584
2 61532  53.1572  22.6887 0001012  81.3143 263.5103 15.69756475    15

Sigue STARLINK-11354 en tiempo real con AllMySat

Download on the App Store